CST,Max TemperatureF,Mean TemperatureF,Min TemperatureF,Max Dew PointF,MeanDew PointF,Min DewpointF,Max Humidity, Mean Humidity, Min Humidity, Max Sea Level PressureIn, Mean Sea Level PressureIn, Min Sea Level PressureIn, Max VisibilityMiles, Mean VisibilityMiles, Min VisibilityMiles, Max Wind SpeedMPH, Mean Wind SpeedMPH, Max Gust SpeedMPH,PrecipitationIn, CloudCover, Events, WindDirDegrees
1999-1-1,68,60,51,61,54,43,94,83,43,30.10,29.92,29.68,10,8,2,21,10,28,0.00,7,Rain,124
1999-1-2,64,50,35,61,45,23,100,82,60,30.11,29.83,29.59,10,8,1,25,15,34,0.00,5,Rain-Thunderstorm,298
1999-1-3,35,30,26,30,18,14,81,56,48,30.49,30.31,30.12,10,10,10,17,14,23,0.00,0,,311
1999-1-4,39,30,21,25,14,7,80,56,30,30.62,30.54,30.49,10,9,7,17,9,,0.00,0,,317
1999-1-5,48,34,21,30,19,-71,86,61,4,30.55,30.41,30.25,10,10,10,14,6,,0.00,0,,146
1999-1-6,64,50,37,55,41,30,94,70,28,30.26,30.20,30.14,10,8,5,14,9,,0.00,7,,138
1999-1-7,62,58,55,61,58,55,100,97,88,30.17,30.11,30.01,7,4,0,14,10,,0.00,8,Fog-Rain,128
1999-1-8,73,64,53,63,60,50,94,84,65,30.01,29.92,29.82,10,8,5,23,12,,0.00,5,Rain,177
1999-1-9,51,40,30,48,31,23,93,72,43,30.35,30.23,29.97,10,9,7,23,17,23,0.00,3,,2
1999-1-10,50,38,26,43,28,19,93,71,43,30.42,30.36,30.32,10,9,7,9,5,,0.00,0,,351
1999-1-11,62,45,28,45,36,27,93,72,39,30.36,30.26,30.12,10,10,10,17,4,,0.00,0,,162
1999-1-12,69,56,42,54,50,43,100,76,53,30.11,30.00,29.91,10,10,7,21,11,23,0.00,4,,155
1999-1-13,73,62,51,61,57,52,100,84,61,30.06,29.98,29.92,10,10,7,18,8,,0.00,4,,162
1999-1-14,57,48,37,50,42,34,93,85,76,30.24,30.16,30.05,10,7,3,18,11,,0.00,6,,337
1999-1-15,57,44,30,41,35,30,100,76,41,30.22,30.13,30.02,10,8,3,9,5,,0.00,0,,91
1999-1-16,69,54,39,55,49,37,100,80,49,30.03,29.97,29.90,10,8,5,14,9,18,0.00,5,,153
1999-1-17,77,68,60,64,62,55,94,83,61,29.95,29.87,29.79,10,8,4,23,12,24,0.00,5,,180
1999-1-18,68,57,44,61,44,34,100,67,28,30.19,30.11,29.95,10,9,1,9,5,,0.00,0,,293
1999-1-19,69,56,42,63,53,37,94,84,64,30.16,30.07,29.98,10,6,4,14,6,,0.00,4,,157
1999-1-20,75,68,60,64,62,61,100,84,65,30.03,29.96,29.87,10,5,2,16,8,,0.00,6,,188
1999-1-21,78,74,69,68,65,63,94,80,57,29.82,29.69,29.55,10,7,4,23,15,32,0.00,8,Rain-Thunderstorm,171
1999-1-22,71,61,51,66,58,46,100,89,77,29.91,29.59,29.50,10,8,3,23,14,25,0.00,5,Rain-Thunderstorm,266
1999-1-23,51,44,37,46,39,36,100,80,66,30.20,30.00,29.76,10,8,7,18,13,25,0.00,4,,318
1999-1-24,64,47,30,46,38,30,100,80,45,30.31,30.24,30.02,10,6,0,8,2,,0.00,0,Fog,156
1999-1-25,75,58,41,54,49,41,100,83,44,30.40,30.33,30.27,10,7,0,9,6,,0.00,1,Fog,140
1999-1-26,73,58,42,57,50,43,100,84,36,30.32,30.25,30.17,10,6,0,14,5,,0.00,1,Fog,142
1999-1-27,71,60,50,63,57,50,100,94,69,30.21,30.15,30.06,10,4,0,12,7,,0.00,6,Fog,140
1999-1-28,73,65,57,66,64,55,100,94,73,30.08,30.03,29.94,10,4,0,14,8,,0.00,7,Fog-Rain,122
1999-1-29,71,66,60,70,64,61,100,97,94,29.94,29.88,28.98,10,5,1,129,17,,0.00,8,Rain-Thunderstorm,102
1999-1-30,69,60,51,66,56,43,100,81,43,30.08,29.96,29.89,10,8,2,14,9,,0.00,4,Rain,257
1999-1-31,60,51,42,46,43,39,93,77,55,30.18,30.12,30.08,10,9,7,8,4,,0.00,0,,288